Regional Weather Roundup
Issued by NWS Grand Forks, ND

Home | Current Version | Previous Version | Graphics & Text | Print | Product List | Glossary On
Versions: 1 2 3 4 5 6 7 8 9 10 11 12 13 14 15 16 17 18 19 20 21 22 23 24 25 26 27 28 29 30 31 32 33 34 35 36 37 38 39 40 41 42 43 44 45 46 47 48 49 50
000
ASUS43 KFGF 191231
RWRFGF
PRAIRIE TO PINES  WEATHER ROUNDUP
NATIONAL WEATHER SERVICE EASTERN NORTH DAKOTA/GRAND FORKS ND
600 AM CST THU JAN 19 2017

 **SATELLITE DATA USED TO AUGMENT SKY COVER AT AUTOMATED STATIONS**
 *****  WEATHER ACROSS EASTERN NORTH DAKOTA  *****

CITY           SKY/WX    TMP DP  RH WIND       PRES   REMARKS
GRAND FORKS    FAIR      25  19  78 S10       29.59S WCI  15
6HR MIN TEMP:  25; 6HR MAX TEMP:  27;

GRAND FRKS AFB FAIR      22  19  89 S9        29.57F WCI  11
DEVILS LAKE    FAIR      20  16  84 SE7       29.51F WCI  11
6HR MIN TEMP:  19; 6HR MAX TEMP:  33;

FARGO          FOG       25  24  96 SE12      29.63F VSB 3/4 WCI  14
WAHPETON ARPT  CLOUDY    27  23  86 SE8       29.67S VSB 1/2 WCI  18
$$

 ***** WEATHER ACROSS CENTRAL AND WESTERN NORTH DAKOTA  *****

CITY           SKY/WX    TMP DP  RH WIND       PRES   REMARKS
BISMARCK       FAIR      14  11  87 E5        29.55F WCI   6
6HR MIN TEMP:   8; 6HR MAX TEMP:  23;

MINOT          FAIR      25  21  85 E7        29.48S WCI  17
6HR MIN TEMP:  24; 6HR MAX TEMP:  34;

JAMESTOWN      FAIR      19  15  84 S7        29.55F WCI  10
6HR MIN TEMP:  18; 6HR MAX TEMP:  25;

MINOT AFB      FAIR      23  19  86 CALM      29.47S
GARRISON         N/A     17  15  92 CALM      29.51R
WILLISTON      FAIR      19  17  92 CALM      29.49F
6HR MIN TEMP:  16; 6HR MAX TEMP:  25;

DICKINSON      FAIR      23  16  74 W6        29.48S WCI  16
6HR MIN TEMP:  22; 6HR MAX TEMP:  36;

HETTINGER      FAIR       9   7  92 W3        29.52F
6HR MIN TEMP:   9; 6HR MAX TEMP:  24;

$$

 *****  OTHER AIRPORT OBSERVATIONS IN OUR AREA  *****

CITY           SKY/WX    TMP DP  RH WIND       PRES   REMARKS
WALHALLA       NOT AVBL
GRAFTON AIRPOR FAIR      23  19  86 S13       29.58S WCI  11
VALLEY CITY AR MIX PCPN  23  23 100 S13       29.57F VSB 1/2 WCI  11
CANDO          NOT AVBL
CAVALIER APRT    N/A     23  18  80 S13       29.54S WCI  11
GWINNER        FAIR      21  21 100 SW8       29.61F WCI  12
SHEYENNE NWR     N/A     16  13  89 S2        29.95S
ROLLA            N/A    N/A N/A N/A MISG        N/A
 ***** THE ABOVE OBSERVATIONS ARE NON NWS ARE NOT QUALITY
       CONTROLLED AND MAY MIS-REPORT RAIN FOR SNOW...
$$

  *****  WEATHER ACROSS NORTHERN MINNESOTA  *****

CITY           SKY/WX    TMP DP  RH WIND       PRES   REMARKS
FLAG ISLAND    FAIR      19  18  93 SE10      29.60S WCI   8
WARROAD        FAIR      30  27  86 S8        29.61S WCI  23
ROSEAU         FAIR      28  25  86 S14       29.60S WCI  17
HALLOCK        FAIR      25  21  86 S14       29.56F WCI  13
THF RVR FALLS  FAIR      24  20  84 S9        29.63F WCI  14
6HR MIN TEMP:  24; 6HR MAX TEMP:  29;

BAUDETTE       FAIR      25  20  81 SE7       29.62F WCI  17
6HR MIN TEMP:  24; 6HR MAX TEMP:  31;

WASKISH        FAIR      28  27  93 S7        29.66F WCI  21
CROOKSTON      CLOUDY    27  25  93 S14       29.63S FOG     WCI  15
STEPHEN NDAWN    N/A     27  25  93 S17         N/A  WCI  14
GREENBUSH NDAW   N/A     30  27  86 S14         N/A  WCI  20
$$
  *****  WEATHER ACROSS CENTRAL AND WEST MINNESOTA  *****

CITY           SKY/WX    TMP DP  RH WIND       PRES   REMARKS
FOSSTON        FAIR      25  25 100 SE9       29.64F WCI  15
BEMIDJI        FOG       28  28  99 S6        29.67R VSB 3/4 WCI  22
PARK RAPIDS    FOG       29  27  92 SE9       29.67S VSB 1/4 WCI  20
6HR MIN TEMP:  22; 6HR MAX TEMP:  30;

ELBOW LAKE     SNOW      30  30 100 E12       29.68S VSB 1/4 WCI  20
6HR MIN TEMP:  28; 6HR MAX TEMP:  30;

WADENA         MIX PCPN  30  30 100 S6        29.69R VSB 1/4 WCI  24
DETROIT LAKES  FOG       32  32 100 S8        29.67R VSB 1/4 WCI  25
MOORHEAD       FOG       27  27 100 SE13      29.65F VSB 1/2 WCI  16
FERGUS FALLS   FOG       28  28 100 S9        29.72R VSB 3/4 WCI  20
MORRIS MN      FAIR      28  27  93 SE9       29.68S FOG     WCI  20
STAPLES        MIX PCPN  30  30 100 S7        29.71S VSB 1/4 WCI  23
$$
  *****  WEATHER ELSEWHERE ACROSS MINNESOTA  *****

CITY           SKY/WX    TMP DP  RH WIND       PRES   REMARKS
DULUTH         FOG       33  33 100 S9        29.76R VSB 1/4
6HR MIN TEMP:  31; 6HR MAX TEMP:  33;

INTRNTL FALLS  FAIR      22  19  89 SE6       29.67S WCI  14
6HR MIN TEMP:  20; 6HR MAX TEMP:  28;

ELY            FAIR      27  27 100 S8        29.73R FOG     WCI  18
CLOQUET        FOG       34  32  93 S8        29.76S VSB 1/4
WHEATON        FAIR      27  27 100 SE5       29.69R WCI  21
BRAINERD       FOG       32  32 100 S9        29.73S VSB 1/4 WCI  24
6HR MIN TEMP:  27; 6HR MAX TEMP:  32;

HIBBING        FOG       30  30 100 S5        29.72S VSB 1/4
6HR MIN TEMP:  20; 6HR MAX TEMP:  30;

ALEXANDRIA     FOG       31  31 100 SE8       29.70S VSB 1/2 WCI  23
6HR MIN TEMP:  26; 6HR MAX TEMP:  33;

SAINT CLOUD    FAIR      25  25 100 SE7       29.77R FOG     WCI  17
6HR MIN TEMP:  23; 6HR MAX TEMP:  31;

MINNEAPOLIS    FAIR      32  29  88 VRB5      29.82R
6HR MIN TEMP:  29; 6HR MAX TEMP:  34;

$$

  *****  WEATHER ACROSS SOUTH DAKOTA  *****

CITY           SKY/WX    TMP DP  RH WIND       PRES   REMARKS
SIOUX FALLS    FAIR      36  33  89 S9        29.74S
6HR MIN TEMP:  35; 6HR MAX TEMP:  38;

BROOKINGS      FAIR      33  31  92 S15       29.69S WCI  23
WATERTOWN      MOCLDY    29  28  96 S13       29.65S FOG     WCI  19
6HR MIN TEMP:  24; 6HR MAX TEMP:  31;

HURON          FAIR      34  33  96 S15       29.64S WCI  24
6HR MIN TEMP:  31; 6HR MAX TEMP:  34;

SISSETON         N/A     35  32  88 S9        29.65R
ABERDEEN       FOG       15  12  88 S3        29.63F VSB 1/4
6HR MIN TEMP:  12; 6HR MAX TEMP:  20;

MITCHELL       FAIR      33  32  96 SE12      29.67F WCI  24
PIERRE         FAIR      10   8  92 N3        29.55S FOG
6HR MIN TEMP:  10; 6HR MAX TEMP:  20;

MOBRIDGE         N/A     15   9  76 E5        29.52F WCI   8
RAPID CITY     FAIR      26  18  71 CALM      29.52F
6HR MIN TEMP:  24; 6HR MAX TEMP:  37;

$$

  *****  SOME WEATHER IN NEARBY STATES *****

CITY           SKY/WX    TMP DP  RH WIND       PRES   REMARKS
GLASGOW MT     FAIR      23  19  85 E5        29.46S WCI  17
6HR MIN TEMP:  22; 6HR MAX TEMP:  30;

GREAT FALLS MT FAIR      42  25  50 S20       29.44F
6HR MIN TEMP:  38; 6HR MAX TEMP:  43;

CHEYENNE WY    FAIR      36  14  40 NW12      29.60F
6HR MIN TEMP:  30; 6HR MAX TEMP:  38;

SCOTTSBLUFF NE FAIR      22  16  78 SE6       29.60S WCI  14
6HR MIN TEMP:  22; 6HR MAX TEMP:  29;

OMAHA NE       FAIR      30  27  88 SE7       29.79F FOG     WCI  23
6HR MIN TEMP:  30; 6HR MAX TEMP:  37;

DES MOINES IA  CLOUDY    32  31  96 SE8       29.86F FOG     WCI  25
6HR MIN TEMP:  32; 6HR MAX TEMP:  37;

DAVENPORT IA   FAIR      29  27  92 SE8       29.96S FOG     WCI  21
6HR MIN TEMP:  27; 6HR MAX TEMP:  33;

CHICAGO IL     CLOUDY    34  33  96 S9        30.00S FOG
6HR MIN TEMP:  30; 6HR MAX TEMP:  34;

EAU CLAIRE WI  FAIR      28  28 100 CALM      29.87S FOG
6HR MIN TEMP:  25; 6HR MAX TEMP:  31;

LA CROSSE WI   CLOUDY    36  33  89 SE8       29.92S
6HR MIN TEMP:  35; 6HR MAX TEMP:  37;

$$

  *****  SOME NATIONAL WEATHER *****

CITY           SKY/WX    TMP DP  RH WIND       PRES   REMARKS
LA GUARDIA NY  FAIR      43  36  76 NW6       30.03R
6HR MIN TEMP:  41; 6HR MAX TEMP:  44;

RALEIGH NC     FAIR      39  35  86 NE3       30.10R
6HR MIN TEMP:  36; 6HR MAX TEMP:  46;

ATLANTA GA     MOCLDY    56  52  86 CALM      30.04R
6HR MIN TEMP:  54; 6HR MAX TEMP:  58;

NEW ORLEANS LA CLOUDY    71  70  96 S15       29.92F
6HR MIN TEMP:  70; 6HR MAX TEMP:  71;

OKLAHOMA CITY  CLOUDY    48  46  93 S13       29.78F
6HR MIN TEMP:  47; 6HR MAX TEMP:  48;

ALBUQUERQUE NM FAIR      33  29  85 NW5       29.92F
6HR MIN TEMP:  33; 6HR MAX TEMP:  39;

SALT LAKE CITY CLOUDY    26  22  84 NE6       29.79F FOG     WCI  19
6HR MIN TEMP:  25; 6HR MAX TEMP:  26; 6HR PCP: TRACE;

LOS ANGELES CA LGT RAIN  54  53  97 SE9       29.97F FOG
6HR MIN TEMP:  53; 6HR MC1F1C2F2C3F3C4F4C5F5C6F6C7F7C8F8C9F9CaFaCbFbCcFcCd!


USA.gov is the U.S. government's official web portal to all federal, state and local government web resources and services.